Simultaneous Nadir Overpasses (SNOs) Predictions

Prediction of SNOs between AQUA and GOES-15 Satellite Orbit:

Table of predicted SNOs for the next 14.0 days since TLE Epoch: 11/30/2018
Index Date Time (AQUA) AQUA Lat,Lon GOES-15 Lat,Lon Distance(km) Time Diff (sec)
1 11/30/2018 22:22:22 -0.69,-131.62 -0.02,-128.41 364.44 80
2 12/02/2018 22:10:11 -0.10,-128.65 -0.02,-128.45 24.15 80
3 12/04/2018 21:58:00 0.56,-125.70 -0.03,-128.48 316.30 80
4 12/05/2018 10:19:16 0.48,-130.87 0.01,-128.60 258.24 80
5 12/07/2018 10:07:04 -0.12,-127.91 0.01,-128.63 81.38 80
6 12/09/2018 09:54:53 -0.78,-124.96 0.02,-128.65 420.42 80
7 12/09/2018 22:16:16 -0.35,-130.14 0.00,-128.54 181.37 80
8 12/11/2018 22:04:04 0.26,-127.18 -0.00,-128.57 157.34 80
9 12/12/2018 10:25:21 0.78,-132.34 -0.02,-128.69 416.66 80
10 12/13/2018 21:51:53 0.94,-124.23 -0.00,-128.58 495.74 80
11 12/14/2018 10:13:10 0.11,-129.40 -0.01,-128.70 78.47 80




NCC Satellite Simultaneous Nadir Overpasses (SNOs) Prediction Service
